Torna al catalogo

SL-8 DEB

AttivoLEO
NORAD 11752·DEBRIS·🇷🇺 Russia

Lanciato Apr 3, 1980 da Plesetsk Cosmodrome

Loading…

Prossimi Passaggi (prossime 24 ore)

TLE

AggiornatoSource: Space-Track

Epoca: Sep 14, 2026, 06:32 UTC

1 11752U 80026C   26257.27280258 -.00000037  00000-0  45548-4 0  9999
2 11752  65.8420 188.6795 0030398 243.3039 271.3642 13.75351761331331

Traccia SL-8 DEB in tempo reale con AllMySat

Download on the App Store